Retour au catalogue

COSMOS 886 DEB

ActifLEO
NORAD 9826·DEBRIS·🇷🇺 Russia

Lancé Dec 27, 1976 depuis Baikonur Cosmodrome

Loading…

Prochains Passages (prochaines 24 heures)

TLE

FraisSource: Space-Track

Époque: Sep 14, 2026, 10:25 UTC

1 09826U 76126AN  26257.43424893  .00001672  00000-0  48687-3 0  9998
2 09826  65.8392  58.8751 0741643 250.3709 101.5886 13.48634106374419

Suivez COSMOS 886 DEB en temps réel avec AllMySat

Download on the App Store